ONEWEB-0161

Last updated on April 25, 2021, 12:02 a.m. UTC

1 48053U 21025M   21114.58336806 -.01114548  00000-0 -63753-1 0  9999
2 48053  87.4031 339.4150 0008631 143.2444 321.9173 15.15493157  1783
UTC
Height (km)
Latitude
Longitude
Inclination
Orbital Period
UTC large
Height (km)
Speed (km/s)
/
Latitude / Longitude
Inclination (degrees)
Orbital Period (minutes)
Azimuth
Elevation
Range (km)
Doppler Factor
iOS Compass Heading
iOS Angle

Next 30 passes for location: Hong Kong

Rise time Rise Azimuth (degrees) Set time Set Azimuth (degrees) Duration Max altitude (degrees)

No matching passes for this satellites